Estación de Illapel

Ultimos registro cada 15 minutos 60
Estación Fecha / Hora Temperatura Humedad Lluvia Velocidad Dirección Radiación Presion
60 Illapel 04-05-2026 14:45 27,8 12 0 0,9 323 524 1008,3
59 Illapel 04-05-2026 14:30 27,8 12 0 0,9 323 524 1008,3
58 Illapel 04-05-2026 14:15 27,8 12 0 0,9 359 548 1008,3
57 Illapel 04-05-2026 14:00 27,7 11 0 2,2 325 573 1008,3
56 Illapel 04-05-2026 13:45 27,3 12 0 1,8 303 610 1008,3
55 Illapel 04-05-2026 13:30 27,3 12 0 1,8 303 610 1008,3
54 Illapel 04-05-2026 13:15 26,9 13 0 2,7 322 42 1008,3
53 Illapel 04-05-2026 13:00 26,6 12 0 3,6 319 32 1008,3
52 Illapel 04-05-2026 12:45 26,2 13 0 0,4 323 30 1008,3
51 Illapel 04-05-2026 12:30 26,2 13 0 0,4 323 30 1008,3
50 Illapel 04-05-2026 12:15 25,3 14 0 0,9 325 30 1008,3
49 Illapel 04-05-2026 12:00 24,4 16 0 1,3 348 39 1008,3
48 Illapel 04-05-2026 11:45 23,7 18 0 2,2 350 72 1008,3
47 Illapel 04-05-2026 11:30 23,7 18 0 2,2 350 72 1008,3
46 Illapel 04-05-2026 11:15 22,7 19 0 1,3 359 109 1008,3
45 Illapel 04-05-2026 11:00 21,8 24 0 0,9 22 492 1008,3
44 Illapel 04-05-2026 10:45 19,7 30 0 0,9 42 439 1008,3
43 Illapel 04-05-2026 10:30 19,7 30 0 0,9 42 439 1008,3
42 Illapel 04-05-2026 10:15 19,2 31 0 0,4 62 427 1008,3
41 Illapel 04-05-2026 10:00 18,3 30 0 0 93 432 1008,3
40 Illapel 04-05-2026 09:45 16,7 35 0 0 119 352 1009
39 Illapel 04-05-2026 09:30 16,7 35 0 0 119 352 1009
38 Illapel 04-05-2026 09:15 15,2 38 0 0 127 308 1009
37 Illapel 04-05-2026 09:00 13,6 42 0 0 112 149 1009
36 Illapel 04-05-2026 08:45 11,3 45 0 0 119 141 1009
35 Illapel 04-05-2026 08:30 11,3 45 0 0 119 141 1009
34 Illapel 04-05-2026 08:15 10,2 48 0 0 129 76 1009
33 Illapel 04-05-2026 08:00 9,1 51 0 0 133 77 1009
32 Illapel 04-05-2026 07:45 7,4 54 0 0 139 7 1009
31 Illapel 04-05-2026 07:30 7,4 54 0 0 139 7 1009
30 Illapel 04-05-2026 07:15 7,7 53 0 0 139 0 1009
29 Illapel 04-05-2026 07:00 7,9 53 0 0 173 0 1009
28 Illapel 04-05-2026 06:45 8,1 53 0 0 181 0 1009
27 Illapel 04-05-2026 06:30 8,1 53 0 0 181 0 1009
26 Illapel 04-05-2026 06:15 8,3 52 0 0 153 0 1009
25 Illapel 04-05-2026 06:00 8,6 51 0 0 153 0 1009
24 Illapel 04-05-2026 05:45 8,4 52 0 0 158 0 1009
23 Illapel 04-05-2026 05:30 8,4 52 0 0 158 0 1009
22 Illapel 04-05-2026 05:15 8,6 51 0 0 158 0 1009
21 Illapel 04-05-2026 05:00 8,9 50 0 0 159 0 1009
20 Illapel 04-05-2026 04:45 9,3 49 0 0 156 0 1009
19 Illapel 04-05-2026 04:30 9,3 49 0 0 156 0 1009
18 Illapel 04-05-2026 04:15 9,9 47 0 0 144 0 1009
17 Illapel 04-05-2026 04:00 10,4 46 0 0 143 0 1009
16 Illapel 04-05-2026 03:45 11,7 43 0 0 156 0 1009
15 Illapel 04-05-2026 03:30 11,7 43 0 0 156 0 1009
14 Illapel 04-05-2026 03:15 11,2 44 0 0 158 0 1009
13 Illapel 04-05-2026 03:00 11 45 0 0,4 158 0 1009
12 Illapel 04-05-2026 02:45 10,9 46 0 0 154 0 1009
11 Illapel 04-05-2026 02:30 10,9 46 0 0 154 0 1009
10 Illapel 04-05-2026 02:15 10,7 47 0 0 129 0 1009
9 Illapel 04-05-2026 02:00 11,2 46 0 0 143 0 1009
8 Illapel 04-05-2026 01:45 10,4 49 0 0 148 0 1009
7 Illapel 04-05-2026 01:30 10,4 49 0 0 148 0 1009
6 Illapel 04-05-2026 01:15 10,4 48 0 0 148 0 1009
5 Illapel 04-05-2026 01:00 10,5 49 0 0 173 0 1009
4 Illapel 04-05-2026 00:45 10,4 49 0 0 184 0 1009
3 Illapel 04-05-2026 00:30 10,4 49 0 0 184 0 1009
2 Illapel 04-05-2026 00:15 10,6 48 0 0 187 0 1009
1 Illapel 04-05-2026 00:00 10,9 47 0 0 190 0 1009